Wind_Speed
16 17 18 18 20 20 20 21 20 20 22 23 23 22 20 19 19 18 17 18 19 19 19 19 19 19 19 19 19 18 18 18 18 17 17 16 16 15 14 14 13 12 11 11 11 11 11 11 12 12 12 13 13 13 13 12 12 12 12 12 12 13 12 13 16 17 17 17 16 15 15 16 15 15 14 14 15 14 14 15 13 15 17 16 17
20 18 18 18 20 20 21 22 21 21 23 23 22 21 19 19 18 16 17 19 19 19 19 19 19 18 19 19 18 18 17 17 17 17 17 16 15 14 14 13 13 12 12 12 12 12 12 12 13 14 13 13 14 14 14 13 13 12 12 12 12 14 14 15 17 19 19 17 16 16 15 16 15 15 14 14 15 13 14 13 13 16 17 17 17
22 20 21 19 19 19 20 21 22 22 23 22 21 20 19 19 18 18 19 19 19 19 19 19 18 17 17 17 17 17 17 16 16 16 16 15 15 14 13 13 13 12 12 13 14 14 14 13 14 14 14 13 13 14 14 14 13 13 12 12 13 14 14 16 18 17 16 16 16 15 14 16 16 15 15 14 15 14 14 13 14 17 17 17 17
24 23 22 20 19 19 19 20 21 21 21 21 20 19 19 18 18 19 19 18 19 19 19 18 17 17 17 17 17 16 16 15 15 15 15 15 15 14 13 13 13 12 13 14 15 15 15 15 15 15 15 14 13 14 14 14 13 13 13 13 13 14 14 16 17 13 13 15 15 14 14 17 17 15 15 15 16 15 16 16 16 18 18 18 18
27 24 22 21 21 21 20 20 20 20 20 19 19 18 18 18 18 19 18 18 18 18 18 17 16 17 17 16 16 15 15 14 15 15 14 14 14 14 13 13 13 13 14 14 14 15 15 15 15 15 15 14 13 13 14 15 14 13 13 13 14 15 15 16 15 12 13 14 15 17 17 17 16 16 15 16 17 17 18 17 17 17 18 18 18
26 24 24 23 22 22 22 21 21 20 20 20 18 17 17 17 18 18 17 17 17 17 16 16 16 16 16 16 15 15 15 14 14 14 14 14 13 14 13 13 13 13 14 14 14 14 14 15 15 15 14 14 13 13 15 15 15 14 13 14 14 15 15 13 11 12 13 13 16 18 17 16 16 16 15 17 18 17 17 17 17 18 17 18 18
25 25 24 24 22 22 23 22 22 21 21 20 18 17 17 18 18 17 17 16 17 16 15 15 15 15 15 15 15 15 14 13 14 14 13 13 13 13 13 13 13 13 13 14 13 13 14 14 15 14 13 13 13 14 14 15 15 15 14 14 14 14 14 12 10 11 14 14 16 18 18 16 16 16 15 18 18 16 16 17 18 17 17 18 18
25 24 24 24 23 24 24 23 22 21 20 20 18 18 18 18 18 17 16 16 16 15 15 15 14 14 14 15 15 14 13 13 13 14 13 13 13 13 13 12 13 13 13 14 14 14 14 13 14 14 13 14 14 13 14 15 15 14 14 14 14 14 14 13 11 12 14 16 17 18 19 16 16 18 17 19 18 17 17 17 17 17 17 18 19
25 24 24 24 25 26 24 22 21 20 20 19 19 19 18 18 18 17 16 16 16 15 15 14 14 14 14 14 14 14 13 13 13 13 12 12 12 12 13 13 13 13 14 14 14 14 14 13 13 13 13 13 13 13 14 14 14 13 14 14 14 14 14 14 13 13 15 18 19 19 18 16 16 17 16 16 15 14 17 16 17 17 17 17 18
26 24 24 25 26 25 23 22 21 21 20 20 19 19 19 18 17 16 16 16 15 15 14 14 13 14 13 13 13 13 13 13 13 12 12 12 11 12 13 13 13 13 14 14 14 13 13 13 13 13 13 13 13 14 14 14 13 14 14 14 14 15 15 15 15 14 17 19 19 18 17 15 15 14 13 13 13 13 16 16 17 17 17 17 17
27 25 24 25 26 24 23 22 21 21 21 20 20 19 18 17 16 16 16 16 15 15 14 14 13 13 13 13 13 13 12 12 12 11 11 11 11 12 12 12 13 13 14 14 13 13 12 12 12 12 12 12 14 14 14 13 12 14 15 14 13 15 16 16 17 17 19 19 18 18 17 15 15 14 14 14 15 16 17 17 17 17 17 17 17
27 26 25 27 26 24 24 23 22 22 21 20 19 18 17 16 16 16 16 16 15 14 14 13 13 13 13 12 13 13 12 12 12 11 11 11 11 11 11 12 12 12 13 13 12 12 12 11 11 11 12 13 14 15 14 13 12 13 15 14 14 15 16 16 17 18 19 18 17 18 16 15 15 15 14 15 16 16 17 17 17 17 16 16 16
28 26 27 27 26 24 24 23 22 21 20 19 18 17 16 16 16 16 16 16 15 14 14 13 13 13 12 12 12 13 12 12 11 11 11 11 11 11 11 12 12 12 12 12 12 12 13 12 11 11 13 13 14 15 14 13 12 12 13 15 15 16 16 16 16 17 17 18 18 17 16 16 16 14 14 15 16 16 16 16 16 16 15 15 15
28 27 26 26 25 24 23 22 21 20 19 18 17 16 16 17 16 16 16 15 15 14 13 13 13 13 12 12 13 13 12 12 12 11 11 11 11 11 11 11 12 12 11 11 12 12 12 12 11 12 13 14 15 15 14 13 11 11 14 15 15 15 16 16 16 17 17 18 18 17 17 16 16 14 14 15 15 15 15 16 16 15 15 15 15
28 28 26 25 25 24 22 22 20 19 18 18 17 16 16 17 17 16 16 15 15 14 13 13 13 13 13 13 14 13 12 12 12 11 11 12 11 11 11 11 11 11 10 11 12 11 11 11 11 13 12 14 15 15 14 14 11 11 14 16 15 14 15 16 16 16 17 18 17 17 17 16 15 15 15 14 14 14 15 15 15 15 14 14 14
28 27 26 26 24 23 22 21 19 18 19 18 17 17 16 17 16 16 16 16 15 14 14 13 13 13 14 14 14 13 12 12 12 11 11 11 11 11 11 10 10 10 10 11 11 10 10 11 12 13 12 13 15 15 15 14 13 12 14 16 16 15 14 15 16 16 17 17 17 17 16 16 15 15 15 14 13 14 14 14 14 14 14 14 14
27 27 26 26 24 23 22 19 19 19 18 19 18 18 17 16 16 16 16 16 15 15 14 14 14 14 14 14 13 13 12 11 12 12 11 11 11 11 11 10 10 10 10 11 11 9 10 12 12 12 12 13 14 15 15 14 15 13 14 16 16 15 13 15 17 16 16 16 16 15 15 15 15 15 14 13 13 13 13 13 13 13 13 13 13
26 26 26 25 24 23 22 20 19 19 19 19 18 17 16 16 15 16 16 16 16 15 15 14 13 14 14 14 13 13 12 11 12 12 11 11 11 11 11 11 11 10 10 11 11 10 11 12 12 12 12 12 12 14 14 15 17 15 15 16 16 15 13 15 17 16 16 15 13 13 14 14 14 14 13 13 13 13 13 13 12 12 12 12 12
25 25 25 24 23 23 23 22 20 19 20 19 18 17 16 16 15 16 16 16 16 15 15 14 14 14 14 14 13 13 13 12 13 12 11 11 11 11 11 11 11 10 10 11 12 12 12 12 12 12 11 12 12 13 14 16 18 17 15 15 15 16 14 14 16 16 15 14 13 14 14 14 14 14 13 12 12 12 12 12 12 11 11 11 11
23 23 22 22 22 23 22 21 21 20 19 18 18 17 16 16 16 16 16 16 15 15 15 14 14 14 14 14 13 13 14 13 13 12 11 11 10 11 11 9 10 11 11 11 12 12 12 11 11 12 12 12 12 12 13 15 17 16 15 13 13 16 16 14 14 14 13 14 15 15 14 14 13 13 12 12 11 11 11 11 11 11 11 10 10
22 21 20 21 21 22 21 20 20 19 18 18 17 17 16 16 15 15 15 15 14 14 15 15 14 14 14 13 13 14 13 13 13 13 12 11 10 11 11 9 9 11 12 11 11 12 12 12 12 12 12 12 12 12 13 14 15 14 14 13 12 14 15 14 13 13 13 15 16 15 14 13 12 12 12 11 11 11 10 10 10 10 10 10 9
22 21 20 21 21 21 20 20 20 19 19 18 17 17 17 16 15 15 14 14 14 14 15 15 13 14 14 14 14 13 13 13 13 13 12 11 10 10 10 9 9 11 11 11 11 11 11 11 12 13 12 12 11 10 11 12 12 12 12 12 11 12 14 15 14 13 14 15 16 15 14 13 12 11 11 11 11 11 10 9 9 9 9 9 8
22 21 21 21 21 21 20 20 21 20 20 18 17 18 18 16 15 15 14 14 13 13 14 15 13 14 15 15 14 12 13 14 13 13 12 12 11 10 10 10 10 10 9 10 10 9 9 9 9 10 9 9 8 6 7 8 9 10 11 10 10 13 15 15 15 13 14 16 16 15 15 14 13 12 11 11 10 10 9 8 8 8 8 8 7
22 22 22 21 20 21 20 20 21 21 20 18 17 18 18 17 16 15 14 14 13 13 14 14 14 13 13 14 14 12 12 13 12 13 12 11 11 11 11 11 11 9 8 8 8 7 7 6 6 6 6 6 6 6 6 5 6 9 10 9 10 14 14 14 14 13 14 16 16 15 15 14 13 11 10 10 10 9 8 7 7 7 6 7 6
22 22 21 21 21 20 21 21 21 21 19 18 17 18 18 17 16 15 15 15 14 13 13 14 14 13 12 13 14 12 11 12 12 12 12 11 12 12 10 10 9 8 7 6 5 4 5 5 4 4 3 4 5 6 6 5 6 8 9 10 11 13 14 15 14 13 14 15 15 15 14 14 13 12 10 10 9 8 8 7 7 6 6 6 5
22 22 21 21 21 21 21 22 22 20 18 18 17 18 19 18 17 16 16 15 15 14 13 15 15 12 12 13 13 11 11 13 12 12 13 12 11 12 10 10 9 7 6 5 4 3 4 3 3 4 4 5 5 6 6 6 6 6 8 10 11 12 13 15 14 13 14 14 14 14 14 14 13 12 11 10 10 9 8 7 7 6 5 5 4
21 22 21 21 22 21 21 21 21 20 18 17 17 19 19 19 19 17 17 15 15 15 14 14 14 12 13 15 13 12 12 12 12 11 11 10 9 11 11 10 8 8 7 6 5 3 4 4 4 4 6 8 6 7 7 6 6 6 8 9 10 12 12 15 15 12 13 14 13 13 12 13 13 12 12 11 10 9 8 8 8 7 6 5 5
21 22 22 21 21 21 21 21 20 19 19 18 18 18 18 18 19 18 16 15 14 15 15 14 13 12 13 14 13 13 13 12 13 11 8 9 9 9 9 8 7 8 7 6 5 4 5 4 3 3 4 7 8 6 7 6 6 6 7 8 9 11 12 15 15 12 12 13 13 12 11 11 12 12 11 11 11 10 9 8 8 7 6 6 6
22 22 21 21 21 21 21 20 19 19 21 21 18 18 18 18 18 19 17 15 14 14 16 16 14 14 13 12 11 11 12 12 11 8 7 9 9 7 7 8 7 7 7 6 4 4 4 3 3 2 1 5 6 6 7 7 7 6 6 7 8 10 12 14 15 13 11 12 13 12 11 11 11 11 10 10 10 10 9 8 8 7 7 7 7
22 22 21 21 21 22 21 20 19 18 22 21 18 18 19 20 19 17 17 15 14 14 16 16 14 14 13 12 10 8 10 11 9 7 7 8 8 6 7 8 7 6 6 5 3 3 4 3 4 3 1 4 6 5 6 6 6 7 6 7 7 9 11 11 13 13 11 10 11 12 11 10 10 10 10 9 9 9 9 9 8 7 7 7 7
22 23 21 21 22 22 21 21 20 20 21 19 17 17 17 20 19 16 18 15 13 14 16 15 13 13 12 10 8 8 10 11 9 9 8 10 9 6 7 8 6 6 6 5 3 4 4 2 3 2 3 6 6 5 5 5 4 6 7 6 6 8 9 10 12 14 12 10 10 11 11 10 9 9 9 9 8 8 8 8 8 7 7 6 6
22 23 22 22 22 22 21 21 21 21 20 17 17 17 16 19 18 16 18 15 13 15 14 14 14 13 12 10 8 8 11 11 9 9 9 10 9 8 7 7 6 6 6 5 4 4 3 3 3 2 3 4 4 5 4 5 4 5 7 7 6 7 8 10 12 13 13 10 8 10 11 10 9 9 8 8 8 8 8 8 8 7 7 6 6
22 22 22 23 23 22 22 21 20 20 19 17 17 17 18 18 17 16 16 14 14 14 12 13 14 14 13 11 10 9 11 11 9 8 7 7 8 8 7 6 7 8 5 3 4 5 4 4 4 2 2 2 3 5 5 5 5 4 6 7 6 6 6 8 9 11 13 11 8 9 10 10 10 9 9 8 8 8 7 7 7 7 7 6 6
22 22 23 23 23 22 22 21 21 20 18 17 17 17 17 17 16 16 15 14 14 13 11 12 13 13 13 12 11 10 10 11 9 7 7 7 8 7 5 6 7 7 4 3 3 5 5 3 3 2 2 2 4 6 6 5 5 3 6 8 6 6 6 7 8 9 12 12 9 8 8 9 9 8 8 8 8 7 7 7 7 6 6 6 5
22 23 24 24 23 23 22 21 22 20 18 18 17 17 16 15 16 15 14 14 14 13 12 11 11 12 12 12 12 11 10 11 9 7 7 7 7 6 5 5 5 4 4 4 5 5 5 4 3 3 3 3 4 6 5 5 5 3 5 7 6 6 6 7 7 7 9 10 9 8 8 7 7 7 7 7 7 7 6 6 6 6 5 6 6
24 24 25 25 23 23 23 22 22 21 19 19 17 16 16 15 15 14 14 14 13 12 12 11 12 13 13 13 12 11 11 12 10 8 8 7 6 6 5 6 4 3 4 5 5 5 5 4 4 4 3 3 5 6 5 5 6 4 4 6 5 5 6 6 7 7 7 8 9 8 7 7 6 6 5 5 6 6 5 5 5 6 6 6 6
24 25 26 26 24 24 23 23 23 22 20 19 18 17 17 16 14 14 14 14 12 12 12 12 12 13 14 14 12 11 11 12 10 9 8 7 6 7 6 6 4 3 5 5 5 5 5 3 4 3 2 2 4 6 6 5 5 5 6 6 5 4 5 4 6 7 7 7 7 8 8 8 6 5 5 5 6 5 4 3 4 5 6 6 7
24 25 26 26 25 24 23 23 24 22 20 20 19 18 17 16 15 15 14 13 13 12 12 13 12 14 15 15 13 11 11 11 10 9 7 6 7 8 8 6 4 4 5 5 5 5 4 2 3 3 2 1 1 4 6 5 4 5 7 7 4 4 5 4 5 6 7 6 5 6 7 7 7 6 5 5 5 5 4 3 3 5 6 7 7
25 26 26 26 25 25 24 25 26 23 21 21 20 19 17 16 15 16 16 14 14 13 13 13 13 14 15 14 13 12 11 11 10 9 6 5 8 8 7 5 3 4 4 4 4 5 4 2 2 3 2 1 1 4 5 3 3 4 7 7 4 3 4 4 4 4 5 5 5 6 7 7 6 6 5 5 4 4 3 2 2 3 4 5 6
25 27 27 26 26 27 25 26 27 24 23 22 20 19 18 17 15 16 17 15 14 13 13 12 12 15 16 14 12 11 10 10 10 9 6 5 7 9 8 5 3 3 3 4 4 5 4 2 3 3 2 1 3 5 4 3 4 7 6 5 4 2 2 3 3 4 4 5 5 4 7 8 6 5 5 5 5 5 3 1 1 2 2 4 4
25 28 28 26 26 28 26 26 28 25 24 23 21 20 19 18 17 16 17 15 13 13 13 12 11 14 15 14 14 11 10 10 10 10 8 5 6 8 7 5 4 2 3 3 4 5 4 3 5 3 0 1 3 4 4 4 6 5 2 3 4 3 2 2 2 4 3 4 4 2 3 7 7 7 6 5 5 5 5 2 2 3 5 5 4
26 29 29 27 27 28 26 27 28 26 25 24 22 21 20 20 18 17 17 16 14 13 13 12 12 14 15 14 14 13 11 10 10 9 8 6 5 6 7 6 5 2 2 2 3 4 3 4 4 3 2 1 1 3 5 4 4 4 1 3 4 4 3 1 1 3 3 4 4 3 2 4 6 7 7 6 4 4 6 4 3 6 6 6 5
26 28 29 28 27 28 27 27 28 27 25 25 23 22 21 21 19 17 17 16 15 14 13 11 12 15 14 13 13 13 12 11 10 9 8 7 6 5 7 6 5 4 3 2 2 2 2 4 4 2 3 3 1 2 4 2 1 5 3 1 3 3 2 1 1 2 4 4 3 5 4 3 4 5 5 5 3 4 6 5 5 6 5 5 5
27 28 29 28 28 28 28 28 28 27 26 26 25 22 21 21 19 17 17 17 16 14 13 11 11 14 13 12 13 13 12 12 11 10 9 8 7 6 7 7 6 5 5 4 4 4 3 3 4 2 2 2 0 1 4 2 1 4 2 1 2 3 1 3 4 2 3 4 3 5 6 4 6 6 3 3 4 4 6 6 6 6 5 5 6
28 28 30 29 28 29 29 30 29 28 27 27 26 23 22 22 19 18 17 18 19 16 15 14 12 14 13 12 13 13 12 11 11 10 9 9 8 7 7 7 6 5 5 3 3 4 4 4 4 4 3 1 1 1 3 4 3 2 1 1 0 1 1 1 2 0 2 3 4 6 7 3 6 9 4 4 4 3 7 8 7 6 6 6 6
28 28 30 30 29 30 31 31 29 28 27 28 28 25 24 24 21 19 18 18 21 18 17 16 14 13 13 13 13 12 12 11 10 10 10 9 9 8 7 6 5 5 6 5 3 3 3 4 4 3 3 2 1 1 2 3 5 2 1 1 2 1 1 2 2 1 3 4 6 4 8 4 7 10 5 6 8 6 8 10 9 8 7 6 5
30 30 30 30 30 31 32 32 30 29 28 29 30 27 26 25 23 21 18 16 19 20 17 15 15 14 13 14 14 12 12 11 10 11 10 10 9 9 8 7 6 6 6 5 4 3 3 4 4 3 3 3 3 1 2 1 4 2 3 4 2 1 1 1 0 1 1 3 7 4 6 7 7 11 8 7 11 10 9 10 8 7 8 7 6
31 31 30 31 31 32 33 33 32 30 29 31 32 29 27 27 24 22 20 17 17 19 18 15 15 15 13 14 15 13 13 12 11 11 11 11 10 9 9 8 7 7 6 6 5 5 5 4 5 4 3 3 4 2 2 1 2 3 3 2 1 1 1 1 1 2 1 1 2 5 5 6 5 8 8 6 8 10 12 11 8 6 9 10 9
31 32 31 31 31 33 35 34 33 32 30 32 33 31 29 28 26 23 21 20 17 18 19 15 14 15 14 14 15 15 15 13 12 12 12 11 10 9 9 9 8 7 7 6 6 6 5 4 4 4 3 3 4 3 3 2 2 0 3 0 2 2 1 2 2 4 2 1 1 5 3 4 2 2 2 4 2 5 9 11 9 6 8 10 10
31 32 31 31 31 32 35 35 34 33 32 33 34 32 30 29 28 25 23 22 19 18 20 17 14 14 14 14 14 15 16 14 13 12 12 12 11 10 10 10 9 8 7 7 6 6 6 5 4 4 4 4 4 4 3 3 3 2 2 3 1 2 2 2 3 2 4 2 3 5 2 2 2 2 2 3 1 1 3 7 7 5 6 9 10
30 31 31 31 32 32 35 36 36 35 34 35 35 34 32 31 30 28 25 24 22 20 20 19 17 15 15 15 14 14 15 14 14 13 13 13 12 12 11 10 10 9 9 8 6 6 6 6 5 5 5 5 4 3 3 3 3 2 2 4 4 4 3 2 3 0 2 1 2 4 6 5 2 1 3 2 2 3 4 5 7 7 6 7 8
Wind_Direction
135 138 133 132 131 129 129 127 124 124 123 122 119 114 113 112 110 108 111 115 113 109 108 107 106 107 107 109 109 108 107 105 103 101 97 94 93 92 90 89 88 88 87 89 95 98 96 92 90 91 93 94 93 91 87 83 80 81 80 78 76 74 74 76 76 74 71 75 78 79 81 77 77 75 74 76 80 83 81 80 84 88 89 91 92
139 139 135 135 132 130 130 128 126 125 122 120 115 113 113 110 109 112 117 116 111 108 107 106 105 105 107 109 109 107 104 102 103 101 97 95 93 92 90 88 87 87 87 90 93 94 92 90 91 91 89 88 88 89 87 81 78 79 77 73 72 70 70 73 74 71 69 74 77 76 78 78 77 76 76 77 79 81 81 85 91 89 89 90 91
136 136 135 134 130 127 128 128 127 125 121 118 116 116 116 112 111 116 117 112 108 107 107 107 106 107 109 110 108 105 101 100 102 103 99 96 94 92 90 89 88 89 91 94 93 91 89 88 89 91 88 86 85 86 84 81 79 77 76 74 73 76 75 75 74 75 80 83 84 82 81 81 79 78 78 79 80 81 85 91 90 89 91 92 92
135 135 135 134 132 129 129 129 126 124 121 119 120 121 118 115 114 116 114 110 108 109 109 109 110 112 112 111 107 103 100 99 101 102 99 97 95 93 91 90 89 88 90 93 93 91 90 90 89 88 87 85 84 82 81 79 77 77 75 75 80 86 84 81 83 91 103 101 99 97 89 85 83 81 80 82 84 85 87 88 88 90 92 92 91
134 136 137 136 136 134 132 131 128 126 125 125 126 123 120 119 119 117 115 112 112 112 112 112 115 115 114 111 106 103 100 99 102 102 99 98 97 95 93 91 89 88 90 92 93 92 92 93 90 86 85 85 84 82 81 79 79 79 78 81 86 89 86 87 96 100 102 103 101 97 89 87 86 84 85 86 86 88 89 89 89 89 89 90 90
132 133 136 137 137 135 133 133 133 133 133 133 131 127 125 124 121 120 118 115 116 116 114 115 116 116 114 111 107 103 100 99 101 102 101 99 98 97 95 92 90 90 90 91 91 92 93 92 90 87 85 85 85 84 83 82 81 81 81 84 87 89 86 88 97 92 91 96 96 95 90 89 90 87 90 92 90 90 91 92 90 88 89 91 90
129 131 134 135 136 136 134 135 136 136 136 135 134 132 130 125 123 123 121 118 119 118 117 118 116 115 112 109 106 102 100 100 100 100 101 100 99 97 95 92 89 90 91 91 91 91 92 91 91 89 87 86 85 84 83 82 81 83 84 83 83 84 85 89 90 85 91 99 99 98 93 89 91 91 91 93 94 96 95 92 90 90 91 91 92
129 131 133 135 136 136 135 135 136 137 136 137 137 133 129 126 127 126 123 122 121 121 119 118 115 113 111 109 106 104 103 100 100 99 100 99 98 97 93 91 88 89 92 92 92 93 93 91 90 88 90 89 85 83 82 82 83 86 87 82 80 83 91 94 88 83 92 101 101 99 95 92 93 94 92 90 92 94 92 90 90 92 91 90 91
131 132 133 135 136 136 135 136 136 135 135 136 135 131 130 131 131 128 126 125 124 123 120 117 115 113 110 110 109 108 106 102 99 97 99 98 97 97 93 91 89 87 90 92 91 92 92 91 89 89 91 90 87 84 82 83 85 87 86 84 87 94 101 100 93 92 95 100 102 99 97 98 98 97 94 91 91 90 91 90 91 92 92 91 91
131 132 133 135 137 137 136 136 134 134 135 135 134 132 134 135 133 130 128 125 125 123 120 118 116 115 113 111 110 107 105 101 98 96 97 96 96 96 94 94 91 87 89 91 91 91 91 92 92 93 95 95 93 87 83 85 87 84 84 91 98 95 93 96 100 101 99 101 102 100 98 100 102 100 94 91 91 95 97 95 93 93 93 93 94
130 132 131 135 137 136 136 136 135 136 136 136 135 135 136 136 134 131 128 126 124 123 122 121 117 115 113 112 110 106 103 101 98 98 97 97 97 97 96 95 93 90 90 91 92 94 94 95 96 97 100 101 97 89 86 88 89 86 84 94 101 91 89 96 101 102 101 101 100 99 99 101 103 100 96 93 93 97 98 96 95 95 94 95 96
131 132 132 135 136 136 137 137 139 139 139 138 137 137 136 134 132 129 128 127 125 125 122 119 117 115 113 111 109 106 104 103 100 100 100 99 100 100 99 97 97 94 89 90 95 97 96 98 100 101 101 102 98 90 87 90 91 87 82 90 96 91 94 98 98 101 104 104 102 102 102 103 103 101 100 98 97 98 97 96 96 95 95 96 97
131 131 132 135 136 138 140 140 141 140 140 138 137 136 133 132 132 129 128 128 127 126 123 119 117 115 113 112 110 108 106 105 104 102 102 102 101 102 102 100 98 94 91 93 97 101 102 101 101 103 102 100 97 94 91 93 96 92 85 88 91 90 95 98 98 102 105 108 109 107 107 107 104 101 102 101 100 100 99 98 97 97 97 96 96
130 131 132 135 138 140 140 140 139 137 136 135 134 135 132 132 132 131 130 131 129 127 124 121 119 117 115 113 111 108 107 107 106 103 102 101 101 101 101 101 99 96 94 95 97 99 103 103 101 103 105 103 99 96 96 96 98 97 90 89 91 89 92 96 99 104 108 111 112 110 110 109 106 103 103 103 103 102 101 100 99 99 98 96 95
132 132 133 134 137 138 138 136 134 132 131 132 134 134 133 133 134 133 132 132 130 128 126 123 121 118 116 114 112 110 109 109 107 104 101 99 101 103 101 101 100 97 92 94 97 98 100 100 102 105 107 107 102 97 95 96 100 99 93 92 97 97 95 98 100 104 109 111 113 114 112 110 108 106 104 104 104 104 102 101 101 100 99 97 96
133 132 132 134 135 135 134 133 131 131 131 132 133 134 135 136 136 135 133 133 130 129 127 124 122 119 117 114 112 111 109 108 109 109 107 104 104 104 103 103 100 93 90 92 97 99 101 103 104 107 107 105 102 98 95 98 101 101 96 94 101 103 99 101 103 103 107 109 112 115 113 112 110 107 106 105 106 106 105 102 101 101 100 99 97
132 132 133 135 135 134 133 133 133 132 131 132 133 135 137 138 138 135 133 132 131 130 128 125 123 121 118 114 114 112 111 110 108 109 109 107 106 105 104 104 98 92 92 94 98 101 103 106 105 104 103 102 100 99 98 100 103 103 97 95 100 101 99 101 104 107 109 108 111 115 116 116 113 108 107 108 109 109 107 104 102 102 102 101 99
134 135 135 136 137 135 135 136 135 134 132 132 134 135 136 138 137 133 132 131 130 130 127 126 125 123 119 116 115 114 114 112 107 107 108 107 104 104 105 100 96 97 98 95 99 103 101 102 103 102 103 104 103 101 101 104 107 109 102 96 99 102 103 104 106 109 110 111 116 122 123 122 116 110 110 111 111 111 110 108 106 106 106 103 101
136 136 136 138 138 137 138 138 137 137 134 133 135 134 135 138 137 132 132 132 132 129 127 128 126 124 121 118 118 118 116 111 109 108 105 104 101 100 101 97 94 99 101 98 100 103 103 103 102 103 104 103 102 103 107 110 112 113 109 101 100 105 108 103 100 100 102 112 123 127 128 126 118 114 113 113 113 114 114 113 110 109 108 105 103
137 137 138 139 138 138 140 140 140 140 136 136 138 136 136 137 136 134 135 134 132 131 130 129 128 127 123 121 120 117 113 112 113 111 106 103 103 103 103 98 91 95 99 99 103 103 104 107 105 104 104 101 101 103 109 115 114 114 115 111 104 107 113 110 102 100 104 113 119 123 128 127 122 119 118 117 117 117 117 117 115 113 110 108 106
138 140 140 140 140 141 142 143 144 143 141 142 142 142 142 139 138 137 138 136 135 136 133 132 132 130 127 124 121 117 113 114 113 112 110 107 106 107 110 107 93 94 96 98 104 103 103 108 109 106 105 102 99 101 109 117 117 113 116 118 114 111 116 117 112 110 114 116 115 117 122 124 124 124 125 124 122 121 122 120 120 118 114 112 110
143 143 144 144 143 144 145 146 147 147 146 145 146 149 146 143 142 141 142 141 140 139 137 135 135 136 135 131 127 124 121 119 116 114 112 111 110 106 108 105 92 90 93 97 102 103 106 111 112 109 108 103 97 99 108 118 120 118 120 119 122 120 115 116 115 114 118 120 118 116 118 120 122 125 128 131 130 127 124 123 125 124 119 117 117
148 146 149 149 146 148 149 149 150 151 150 147 150 152 149 148 147 145 146 145 143 144 142 139 141 143 141 136 130 128 128 126 125 122 118 117 115 109 106 101 93 90 92 96 101 108 114 116 119 117 116 111 111 119 114 118 121 123 124 114 119 126 120 118 117 119 123 124 122 119 118 118 120 123 128 132 134 132 127 126 128 126 122 121 122
151 148 151 150 149 151 151 151 152 153 152 150 152 153 152 152 152 151 150 149 151 150 144 144 151 151 145 141 133 133 134 131 130 126 122 124 123 118 113 110 106 101 98 96 101 112 117 122 132 134 133 128 136 144 128 129 130 122 119 113 121 127 123 121 121 124 126 124 123 121 119 118 120 122 124 127 130 131 132 132 131 130 127 124 122
150 148 150 151 153 153 153 154 153 155 154 151 152 155 155 155 155 155 154 155 156 153 149 152 160 159 154 149 137 139 141 136 137 135 137 139 136 132 129 128 121 114 110 106 115 124 123 132 143 146 146 138 142 147 138 139 142 128 121 126 129 126 127 129 129 133 134 129 126 124 123 121 121 121 122 124 125 128 134 138 138 135 130 124 120
151 149 150 153 154 154 156 155 155 157 156 153 156 159 158 156 157 158 158 160 157 154 159 163 164 163 160 151 140 144 146 142 146 149 152 150 143 142 142 143 134 129 131 124 145 157 132 146 185 198 205 177 138 126 136 137 136 133 127 133 132 130 137 136 134 139 138 134 131 128 126 124 122 121 121 124 125 127 130 134 137 136 134 131 128
153 150 151 154 155 157 157 156 157 157 155 154 156 160 162 160 159 159 160 162 160 158 164 167 164 163 159 149 145 152 154 151 154 153 153 150 145 147 147 149 143 145 149 128 134 151 143 169 205 206 210 200 170 122 125 125 124 127 127 132 130 133 140 138 138 143 141 139 137 133 130 128 126 122 121 123 125 126 126 128 132 137 138 137 139
153 151 153 155 157 158 158 158 157 157 158 155 155 158 162 162 160 161 163 164 163 160 160 164 159 155 154 150 151 161 165 161 159 152 147 146 147 153 148 145 142 144 148 141 154 166 154 164 184 193 195 193 189 152 134 125 123 125 124 129 127 131 140 143 144 144 143 142 142 140 137 134 130 127 125 124 124 125 126 128 131 137 138 137 140
154 153 155 158 159 157 158 159 157 160 161 158 157 156 157 158 159 162 164 164 166 161 156 160 159 154 156 157 153 160 166 164 162 148 137 137 134 136 131 135 141 136 141 154 179 169 147 158 160 175 189 168 168 151 143 134 125 122 122 131 130 130 141 147 146 146 148 146 147 148 146 143 139 135 132 129 128 128 131 133 135 137 137 135 137
156 155 157 159 159 157 159 160 158 160 158 159 159 158 159 155 155 159 158 163 171 165 155 155 155 151 157 158 146 156 164 160 156 133 121 130 133 130 120 131 134 128 151 160 155 136 134 157 142 128 155 149 139 132 134 128 127 129 125 132 132 131 139 146 147 149 150 147 150 153 152 152 148 145 142 138 136 135 137 139 142 143 143 141 141
159 158 159 160 159 159 160 158 160 161 156 157 158 159 161 156 157 160 161 170 171 163 159 155 151 151 159 151 133 142 142 137 141 134 124 127 137 132 110 120 122 124 159 157 127 125 120 133 126 115 131 128 127 136 137 130 135 134 126 128 132 135 143 148 149 148 152 157 157 154 156 157 157 157 153 151 149 148 149 148 150 151 151 150 146
162 161 159 161 161 161 160 157 161 162 157 158 158 157 158 157 161 162 165 168 160 162 164 154 151 156 160 146 124 123 126 124 127 134 135 129 130 123 110 128 140 135 143 142 135 129 127 146 140 132 133 129 142 149 143 140 137 129 131 130 129 136 143 148 151 153 157 163 160 156 159 159 162 165 162 162 162 163 165 163 162 163 165 164 161
164 162 160 163 163 162 160 158 161 162 161 161 160 159 158 159 160 160 163 157 155 167 162 147 148 150 150 146 131 118 128 131 118 121 130 125 125 121 118 132 135 129 128 140 154 139 136 140 130 126 133 151 172 156 150 142 134 142 141 130 126 134 136 139 148 158 160 160 160 161 161 161 164 170 170 173 174 175 178 178 177 177 178 178 176
165 163 162 166 164 162 160 159 161 163 164 161 160 161 159 159 158 159 161 155 159 164 151 141 140 142 143 145 137 124 133 138 127 125 126 124 122 116 122 128 123 124 124 128 139 134 128 113 109 121 134 146 160 156 154 138 130 136 129 125 130 134 134 136 139 152 157 157 160 166 167 166 167 170 174 180 184 184 184 188 193 191 190 193 193
167 164 164 167 166 163 160 161 162 163 164 159 160 162 159 160 158 159 158 156 163 161 153 149 143 146 145 142 141 137 143 144 137 133 126 124 121 116 122 125 120 122 121 109 109 114 103 85 97 105 108 123 139 141 137 128 126 104 97 113 127 130 130 133 136 142 147 152 158 163 170 170 173 180 180 186 193 193 194 196 198 200 201 205 211
168 165 165 168 168 164 162 162 162 163 164 159 160 161 160 161 158 157 158 158 164 160 159 160 153 153 147 143 147 147 152 151 144 139 132 127 127 126 122 124 131 132 121 106 108 105 83 79 93 76 67 132 158 140 126 132 135 130 118 118 118 118 121 131 143 143 138 147 154 156 164 165 177 196 197 201 205 195 198 211 209 207 207 210 219
168 167 167 169 169 165 164 162 162 165 164 161 163 163 161 162 158 155 158 161 163 160 161 165 160 156 152 149 151 153 155 154 151 145 137 137 137 136 137 141 149 138 115 113 128 115 85 80 87 72 71 146 169 147 143 154 149 155 143 125 117 107 103 114 128 129 128 142 153 154 160 163 174 204 216 220 215 194 186 208 222 218 216 218 223
168 169 169 171 169 165 167 164 162 166 164 163 164 163 163 162 159 158 162 164 164 163 164 167 163 155 152 152 155 157 155 155 157 153 144 144 144 147 153 153 154 147 126 131 146 119 99 92 75 82 101 88 136 141 148 159 157 153 133 116 110 100 99 103 106 117 130 143 150 145 151 165 175 187 207 220 218 206 189 182 210 219 219 225 230
168 169 170 172 169 165 168 164 163 166 164 163 163 163 165 164 162 162 166 169 170 169 166 168 165 156 155 158 160 160 158 160 163 160 158 155 147 147 151 150 161 161 139 144 149 121 113 124 106 103 101 88 84 108 123 143 136 118 113 112 107 95 94 106 121 128 136 144 149 159 163 164 170 175 188 205 207 204 195 177 195 208 212 221 232
168 168 171 175 170 166 168 163 164 167 162 163 165 164 166 166 166 164 168 179 180 172 168 169 164 159 164 166 160 161 164 166 165 164 170 164 144 140 142 160 194 166 135 146 150 134 126 133 129 106 79 140 126 108 112 119 93 79 87 109 112 118 105 99 135 141 146 150 148 179 173 155 162 178 174 175 180 188 200 220 215 216 242 247 256
166 166 173 178 171 167 168 163 165 169 164 165 168 168 168 169 171 166 168 182 182 171 170 172 164 157 162 162 156 162 173 171 167 170 174 160 137 137 142 165 203 192 141 134 132 134 131 132 132 121 84 137 139 137 119 107 109 105 134 149 126 120 117 102 140 147 156 160 153 186 172 156 163 171 167 162 165 179 194 225 234 217 243 265 275
167 168 174 179 173 169 170 166 167 170 168 169 171 171 170 169 172 169 170 177 175 170 172 175 165 150 152 158 157 165 176 174 173 173 171 163 150 146 148 171 210 198 127 98 109 124 135 146 137 130 151 138 137 131 121 133 148 137 150 153 139 125 119 118 155 166 164 162 168 170 171 162 153 155 163 163 159 179 191 205 202 194 222 262 275
172 171 174 178 175 173 172 168 170 172 171 173 173 173 172 170 173 172 171 171 171 172 171 175 164 148 153 162 162 170 175 174 178 177 175 178 179 167 157 176 203 182 166 162 157 166 169 161 143 124 147 155 217 114 132 205 184 123 119 119 158 144 135 165 188 198 181 175 187 175 176 176 144 144 161 174 183 178 177 182 182 187 211 252 269
175 174 175 179 177 176 174 171 173 174 175 176 175 174 172 172 175 174 174 168 168 173 169 175 167 153 160 164 164 175 176 175 183 183 184 184 185 183 170 177 192 192 194 190 182 193 192 168 158 169 170 142 245 181 167 211 37 103 136 278 199 154 129 171 167 195 205 185 210 192 182 195 172 159 170 197 182 172 187 198 204 218 221 218 231
178 177 177 180 179 178 176 173 175 175 177 178 176 174 173 175 177 178 180 167 163 172 170 176 175 160 163 168 171 180 179 181 187 185 188 188 188 190 181 184 194 197 200 200 190 186 183 186 185 188 183 129 18 280 202 178 127 85 350 333 11 140 29 51 112 356 285 217 233 196 175 224 194 169 182 218 194 201 216 211 218 240 233 211 212
180 180 180 181 180 179 177 175 176 175 177 179 176 174 175 179 180 182 186 165 159 173 175 176 179 172 169 170 175 182 183 186 189 188 190 191 192 194 192 194 195 193 200 216 218 189 180 194 199 189 182 175 80 336 270 167 132 121 226 111 61 57 116 54 48 349 319 307 303 211 176 211 201 178 196 222 211 215 210 210 232 249 230 211 209
182 182 182 182 181 179 177 177 178 176 177 179 178 177 176 179 180 181 186 169 159 172 178 177 177 179 176 168 173 184 187 189 191 191 193 195 196 195 198 199 198 204 206 215 218 204 201 194 189 188 189 186 160 174 277 144 118 141 215 187 156 91 72 65 153 144 294 318 337 315 199 191 198 198 198 203 212 211 197 206 228 236 224 212 209
183 183 183 184 182 178 178 179 179 178 179 179 179 180 178 179 180 179 183 177 166 170 178 180 174 176 181 173 174 183 189 191 193 194 195 199 202 199 202 201 202 209 206 208 216 213 211 188 175 189 202 181 166 197 240 194 164 176 204 226 184 139 149 182 105 90 307 297 323 292 239 189 197 203 194 210 222 201 192 202 206 216 238 234 219
183 184 184 183 182 179 178 180 181 180 181 180 180 182 181 179 180 180 181 180 173 170 176 181 175 175 183 180 178 182 188 192 194 198 198 201 206 206 207 206 205 210 208 211 216 215 209 185 177 194 207 194 181 205 215 228 284 199 148 269 340 340 236 207 184 174 165 58 288 276 247 184 163 122 185 269 255 169 196 209 201 210 240 235 228
185 184 185 184 182 180 179 181 184 183 183 183 182 183 183 182 182 182 181 180 177 173 175 183 183 178 181 183 183 182 183 190 195 201 203 202 207 208 208 210 210 212 216 218 220 215 207 198 201 202 204 209 202 208 214 225 282 327 137 162 241 313 327 313 280 182 123 115 259 285 331 109 114 114 194 241 113 74 245 214 202 230 233 220 230
188 186 186 187 185 181 180 183 186 185 184 185 184 184 184 184 185 185 183 182 181 178 177 183 187 184 182 183 188 185 180 186 194 200 204 204 207 209 209 212 212 214 219 223 225 220 214 210 210 211 216 225 220 216 228 231 236 258 224 170 189 225 196 213 278 289 90 274 268 313 336 3 14 239 213 214 245 263 263 236 229 249 242 221 228
Height
798 798 800 801 803 803 804 805 807 808 809 810 811 813 814 815 816 817 819 820 821 823 824 825 827 828 829 830 831 831 831 831 832 832 832 833 833 834 834 835 835 836 836 835 836 836 836 836 836 836 836 836 836 837 837 838 838 839 839 839 840 841 841 841 842 843 844 844 845 845 845 845 845 845 845 845 845 846 846 846 845 845 845 845 845
797 799 800 801 803 804 806 806 808 809 810 811 812 814 814 816 817 819 820 822 823 824 825 826 827 829 830 830 831 832 832 832 832 833 833 834 835 835 835 836 836 836 836 836 836 837 837 837 837 837 837 837 837 838 838 839 839 840 840 840 841 843 844 844 844 846 846 846 846 846 846 846 846 846 846 846 847 847 847 848 847 846 846 846 846
796 799 800 801 803 803 806 807 809 810 811 812 813 815 816 817 818 820 821 823 823 824 826 827 828 829 831 831 832 832 833 833 833 834 834 835 836 836 836 837 837 837 837 837 837 837 838 838 838 838 839 839 839 839 839 840 841 841 841 842 843 844 845 845 847 847 846 845 845 845 846 847 847 847 847 847 848 848 849 849 848 848 848 848 848
798 800 802 803 804 805 806 807 809 810 812 813 815 816 817 819 820 822 822 823 824 825 826 827 829 830 831 832 833 833 833 834 834 835 835 836 836 837 837 838 838 838 838 837 838 838 839 839 839 839 839 840 841 840 840 841 842 842 843 843 844 844 845 846 846 844 843 843 842 843 845 846 847 848 848 848 848 849 850 850 850 850 850 850 849
799 801 803 805 806 807 808 808 810 811 812 814 815 817 818 819 821 822 823 824 824 826 827 829 830 831 832 833 833 834 834 834 835 836 836 837 837 838 838 838 838 838 838 838 838 839 840 840 840 840 841 841 842 842 842 842 843 843 844 844 845 845 846 846 844 843 844 844 844 845 846 847 848 849 849 850 850 850 851 851 851 851 851 851 851
799 801 803 805 807 808 809 810 811 813 814 815 817 818 819 821 822 823 824 825 826 827 828 830 831 832 833 833 834 834 835 835 836 836 837 838 838 839 839 839 839 839 839 839 839 840 841 841 841 842 842 843 843 843 843 843 844 844 845 845 846 847 846 846 845 845 846 847 847 847 848 849 850 850 851 851 851 852 852 852 852 852 852 852 852
798 801 804 805 807 809 810 812 813 815 815 817 818 820 821 822 823 824 825 826 827 828 830 831 832 833 833 834 834 835 836 836 837 837 838 839 839 839 840 840 840 840 840 841 841 841 842 842 842 843 843 844 844 844 845 845 845 845 845 846 847 847 847 847 846 847 847 847 847 847 848 849 851 851 852 852 852 853 853 853 853 853 854 854 854
799 802 804 805 807 809 811 812 814 815 816 818 819 821 822 823 824 825 826 827 828 830 831 832 833 834 834 835 835 836 836 837 838 838 839 839 840 840 841 841 841 841 841 842 842 842 843 843 843 844 844 844 845 845 846 846 846 846 846 847 847 847 847 848 847 847 848 848 848 849 849 851 852 852 853 853 854 854 854 854 854 855 855 855 855
800 802 804 806 807 810 811 813 815 816 817 819 820 822 823 824 825 826 828 828 829 831 832 833 834 834 835 835 836 836 837 838 839 839 840 840 841 841 842 842 842 842 842 843 843 844 844 844 844 845 845 845 846 846 847 847 847 847 847 848 848 848 848 849 849 848 848 849 849 850 851 852 853 854 855 855 855 855 855 856 856 856 856 857 857
800 802 805 806 808 810 812 814 816 817 819 820 821 822 824 825 826 827 828 829 830 831 833 834 834 835 836 836 837 837 838 839 840 841 841 841 842 842 843 843 843 843 843 844 844 845 845 845 846 846 846 846 847 847 848 847 847 848 849 849 848 849 849 850 850 849 850 850 850 851 852 854 855 855 856 856 856 856 857 857 857 858 858 858 858
800 804 806 807 809 811 813 815 816 818 819 820 822 823 825 825 827 828 829 830 831 832 833 834 835 836 837 837 838 838 839 840 841 841 842 842 843 843 844 844 844 844 844 845 845 846 846 846 847 847 847 847 848 848 848 848 848 849 850 850 849 850 850 851 850 851 851 851 852 852 854 855 856 857 857 857 857 858 858 859 859 859 859 859 859
801 804 806 808 810 812 814 815 817 819 820 821 822 823 825 826 827 828 830 831 832 833 834 835 836 837 837 838 839 839 840 841 842 842 843 843 843 844 844 845 845 845 846 846 846 846 847 847 847 848 848 848 848 849 849 849 849 850 851 851 850 851 851 851 851 852 852 852 853 854 855 856 857 858 858 859 859 859 859 860 860 860 861 861 861
802 804 806 809 810 813 814 816 817 819 820 821 823 824 825 826 828 829 830 832 833 834 835 836 837 838 838 839 840 840 841 842 842 843 843 844 844 845 845 846 846 846 847 847 847 847 847 848 848 848 848 849 849 850 850 850 850 851 852 852 852 852 853 853 853 854 854 854 854 855 856 857 858 859 859 860 860 860 861 861 861 862 862 862 862
801 804 807 809 811 813 814 817 818 819 820 821 823 824 825 826 828 829 831 832 834 835 836 837 837 838 839 840 841 841 842 843 843 843 844 845 845 846 846 847 847 847 847 847 848 848 848 848 849 849 849 850 850 851 851 851 851 852 853 853 853 854 854 854 854 855 855 856 856 856 857 858 859 860 860 861 861 862 862 862 862 863 863 863 864
802 804 807 809 811 813 815 817 817 819 820 821 823 824 826 827 829 830 832 833 834 835 836 837 838 839 840 841 842 842 843 843 844 844 845 845 846 847 847 848 848 848 848 848 848 849 849 849 850 850 850 851 851 852 852 852 852 853 854 854 855 855 855 855 855 856 856 857 857 857 858 859 860 861 861 862 862 863 863 863 864 864 865 865 865
802 804 807 809 811 813 815 816 818 819 820 822 823 825 827 828 830 831 832 834 835 836 837 838 839 840 841 842 843 843 844 844 845 845 846 846 847 847 848 849 849 849 849 849 850 850 851 850 851 851 851 852 852 853 853 853 853 854 855 855 856 855 856 856 857 857 857 858 858 859 860 861 862 862 862 863 863 864 864 864 865 865 866 866 866
802 805 807 809 811 813 815 817 818 820 821 823 824 825 827 828 830 832 833 834 835 837 837 839 840 841 842 843 844 845 845 845 845 846 847 847 848 848 849 850 850 850 850 851 851 851 852 851 852 852 852 852 853 854 854 854 854 855 856 856 856 856 857 857 858 858 858 859 859 860 861 862 862 863 863 864 865 865 865 866 866 867 867 867 867
803 805 807 809 811 813 815 817 819 821 822 823 825 826 827 829 831 832 834 835 836 837 838 840 841 842 843 844 845 846 846 846 846 847 847 848 849 850 850 851 851 852 852 852 852 852 853 853 853 853 853 853 854 855 855 855 856 856 856 857 857 857 858 858 859 859 859 860 860 861 861 863 863 864 864 865 865 866 866 867 867 867 867 867 868
804 806 807 809 811 814 815 817 819 820 822 823 825 827 828 830 831 833 834 835 837 838 839 841 842 843 844 845 846 847 847 847 848 848 848 848 849 850 851 852 852 853 853 854 854 854 854 854 854 854 854 854 855 856 856 857 857 857 857 857 858 858 859 859 860 860 861 861 861 861 862 863 864 865 865 866 866 867 867 867 868 868 868 868 868
804 806 808 810 811 813 814 817 819 820 822 824 826 827 829 830 832 834 835 836 838 839 840 841 842 844 844 846 847 847 848 849 849 849 849 849 850 851 852 852 853 854 855 855 855 855 855 855 855 855 855 855 856 857 857 858 858 858 858 858 859 859 860 860 861 861 861 861 862 862 863 864 865 865 866 866 867 867 868 868 868 868 869 869 869
804 806 808 809 811 813 814 817 818 821 823 824 826 827 829 831 833 834 836 837 838 840 841 842 843 844 846 847 848 848 849 850 850 850 850 850 850 851 852 853 854 855 855 856 856 856 856 857 857 857 856 857 857 857 858 858 859 859 859 859 859 860 860 861 862 862 862 862 862 863 864 864 865 866 866 867 867 868 868 868 869 869 869 869 869
803 806 808 809 811 813 815 817 819 821 823 825 826 828 830 831 833 835 836 838 839 841 841 843 844 845 846 847 848 849 850 850 851 851 851 851 851 851 852 854 855 855 856 857 857 857 858 858 858 858 858 858 858 858 859 859 859 860 860 860 860 861 861 862 862 863 863 863 863 864 864 865 865 866 866 867 867 868 868 869 869 869 869 869 870
802 805 808 809 811 813 815 817 819 821 823 825 827 828 830 832 834 835 837 838 840 841 842 843 844 845 847 848 848 849 850 851 851 852 852 852 852 853 853 854 855 855 856 857 858 858 859 860 860 859 859 859 859 859 860 860 860 860 860 860 861 862 862 862 863 863 863 864 864 864 865 865 866 866 867 867 868 868 869 869 869 870 870 870 870
801 804 807 810 811 813 815 817 819 821 823 825 827 828 830 832 834 835 837 839 841 841 843 843 844 846 847 848 849 850 850 851 852 852 852 853 853 854 855 855 855 856 856 857 858 858 859 860 860 860 860 860 860 860 860 860 860 860 860 860 861 863 863 863 863 864 864 864 864 865 865 866 866 867 867 867 868 868 869 869 870 870 870 871 871
800 804 806 809 811 813 815 817 819 821 823 825 827 828 830 832 834 836 837 839 841 842 843 844 845 846 847 848 848 849 850 851 852 852 853 854 855 855 856 856 857 857 857 857 858 858 858 859 860 861 861 860 860 860 860 860 860 860 861 861 862 862 863 863 864 864 864 865 865 865 866 866 866 867 867 868 868 869 869 870 870 871 871 871 871
800 803 806 808 811 813 815 816 819 821 823 825 826 828 830 832 834 835 837 839 841 842 843 844 845 846 847 848 849 850 850 851 852 852 854 855 855 856 857 858 858 858 858 858 858 859 859 859 860 861 861 861 861 861 860 860 860 861 861 862 862 862 862 863 864 864 864 865 865 866 866 866 867 867 868 868 869 869 870 870 870 871 871 871 872
799 802 805 808 810 812 814 816 818 821 823 825 826 828 830 831 833 835 837 838 840 842 843 844 845 846 847 848 849 851 851 852 852 853 855 855 856 857 858 859 859 860 860 859 859 859 859 859 861 861 862 862 861 861 861 861 861 861 862 862 863 863 862 863 864 864 864 865 865 866 867 867 867 867 868 868 869 869 870 870 870 871 871 871 872
798 801 804 807 809 811 814 816 818 820 822 824 826 828 830 831 833 835 836 838 840 842 843 844 845 846 847 848 849 851 851 852 853 854 855 856 856 857 858 859 859 860 860 860 860 860 860 860 861 861 862 863 862 862 862 861 862 862 863 863 863 863 863 863 864 864 864 865 865 866 867 867 867 868 868 868 869 869 870 870 870 871 871 871 872
797 800 803 806 808 811 813 815 817 819 821 823 826 828 831 832 833 835 836 838 840 841 843 844 845 846 847 849 850 851 852 853 853 854 855 856 856 856 857 859 860 860 860 861 861 861 861 861 861 861 861 862 861 862 862 862 862 862 863 863 863 864 863 863 864 864 865 865 865 866 867 867 867 868 868 868 869 869 870 870 871 871 871 871 872
797 799 803 805 807 810 813 815 817 819 821 823 825 828 831 832 833 834 836 838 840 841 843 845 846 847 848 850 851 851 853 854 854 854 855 856 856 856 858 858 859 859 860 861 862 862 861 861 861 861 861 861 861 861 861 862 862 862 863 863 863 864 864 864 864 865 865 865 866 866 867 867 868 868 868 869 869 870 870 870 871 871 871 872 872
796 799 801 804 806 809 812 814 816 818 820 822 825 827 829 831 832 834 836 837 839 842 843 844 846 847 848 850 850 851 852 853 854 854 855 856 856 857 858 857 859 860 861 862 862 862 861 861 861 861 861 861 861 861 861 862 861 862 862 863 863 864 864 864 864 865 865 865 866 866 867 867 868 869 869 869 869 870 870 870 871 871 871 872 872
795 798 800 803 806 808 811 813 816 817 819 822 825 827 828 830 832 833 836 837 839 841 842 844 845 846 848 849 850 850 851 852 853 854 855 856 856 857 858 858 860 861 861 861 861 861 861 861 861 861 861 861 861 861 862 861 861 862 862 862 863 863 864 864 864 865 865 865 865 866 867 867 868 869 869 869 869 870 870 870 870 871 871 872 873
794 797 800 802 805 807 810 813 815 817 819 822 824 826 828 830 832 833 835 837 839 841 842 843 844 845 847 849 850 850 851 852 853 854 855 856 856 858 859 859 860 860 860 861 860 861 861 861 861 861 861 861 861 861 861 861 861 861 861 862 863 863 864 864 864 864 864 865 865 866 866 867 868 868 869 869 869 869 870 870 871 871 872 872 873
793 796 799 801 804 807 809 813 815 817 819 822 824 826 828 830 832 833 835 837 839 841 842 843 844 846 847 849 850 851 852 852 853 854 855 856 857 858 858 859 859 859 860 860 860 860 860 860 860 860 861 861 861 861 861 861 861 861 861 862 863 863 863 864 864 864 864 864 865 866 866 867 867 868 868 869 869 869 870 870 871 872 872 873 873
792 794 798 801 803 805 808 812 814 817 819 821 823 825 827 829 831 833 835 837 838 840 842 843 845 846 847 848 849 850 851 852 853 854 855 856 857 858 858 859 859 859 859 859 860 860 860 860 860 860 861 861 861 861 861 861 861 861 861 862 862 863 863 864 864 865 865 864 865 866 866 867 867 868 868 868 869 869 870 870 871 872 872 873 873
791 794 797 800 802 804 808 811 813 816 818 820 823 825 827 829 831 833 834 837 838 840 842 843 845 846 847 848 849 850 851 852 853 854 855 856 857 858 858 858 859 859 859 859 859 860 860 860 860 860 861 861 861 861 861 861 862 862 862 862 863 863 863 864 864 865 865 865 865 866 866 867 867 868 868 868 869 869 869 870 871 871 872 872 872
791 793 796 799 801 804 807 810 813 816 818 820 822 824 827 828 830 832 834 836 838 839 841 843 844 845 847 848 849 849 850 852 852 853 855 856 856 857 857 858 859 859 858 859 859 859 860 860 860 860 860 860 860 861 861 861 862 862 862 862 863 863 864 864 864 864 865 866 866 866 867 867 867 868 867 868 868 869 869 870 871 871 871 871 871
790 793 796 798 800 803 807 809 812 815 817 820 822 824 826 828 830 832 834 835 837 839 841 842 843 845 846 847 848 849 850 851 852 853 854 855 856 856 857 858 858 858 858 858 859 859 859 860 860 860 860 860 860 860 861 861 861 861 862 863 863 864 864 864 864 865 865 866 866 866 867 867 867 868 868 868 868 869 869 870 870 870 870 870 870
790 793 795 798 800 803 806 808 811 814 817 819 822 824 826 828 830 832 834 835 837 838 840 841 843 844 845 846 847 848 849 850 851 852 854 855 855 856 856 856 857 857 858 858 858 858 859 860 860 860 860 860 860 860 860 861 861 861 861 863 863 864 864 864 865 865 865 865 866 866 866 867 868 868 868 868 868 868 869 870 869 869 869 869 870
789 792 795 797 799 802 805 807 810 813 816 818 821 823 825 827 829 831 833 834 836 837 839 841 842 843 844 845 847 848 849 850 851 852 853 854 855 856 855 856 857 857 857 857 858 858 858 859 860 860 860 860 860 860 861 861 861 861 862 863 864 864 864 864 864 865 865 865 865 865 865 866 867 868 868 868 868 868 868 869 869 868 868 869 869
787 791 794 796 798 800 803 806 809 812 814 817 820 822 824 826 827 829 832 833 835 836 838 840 841 842 843 845 846 847 848 850 851 852 853 854 855 855 856 856 857 857 857 857 857 858 858 859 859 860 860 860 860 860 861 861 861 862 862 863 863 863 864 864 864 864 865 865 865 865 865 865 866 867 868 868 869 868 868 868 868 868 868 869 869
786 790 792 795 797 799 802 805 808 811 813 816 818 820 822 824 826 828 830 832 834 835 837 838 840 841 843 844 846 847 848 849 851 851 852 853 854 855 855 856 857 857 857 857 858 858 858 859 859 860 860 860 860 860 861 861 861 862 862 862 863 863 864 864 864 864 864 864 865 865 865 865 865 866 867 867 868 868 867 867 867 868 868 868 868
785 789 791 794 797 799 801 804 807 809 812 815 816 819 821 823 825 827 829 831 833 835 836 837 839 841 842 844 846 847 848 849 850 851 852 853 854 854 855 856 857 857 857 857 858 858 858 859 859 860 860 861 861 860 861 861 861 861 862 863 863 864 865 864 863 864 863 864 864 864 865 865 865 866 866 867 866 867 867 867 868 868 868 868 868
784 787 790 793 795 797 800 802 805 808 811 813 815 817 820 822 824 826 827 829 832 834 835 837 838 840 842 843 845 846 847 849 850 851 852 853 853 854 855 856 856 857 857 857 857 858 858 859 859 860 860 861 860 860 861 860 861 861 862 863 862 864 867 865 862 863 863 863 864 863 864 864 864 865 866 866 866 866 867 867 867 867 868 868 867
782 784 787 790 793 796 798 801 804 807 809 812 814 816 818 821 822 824 826 828 830 833 834 836 837 839 841 842 844 845 846 848 849 850 851 852 853 853 854 855 856 856 856 857 857 858 858 859 859 859 860 860 860 860 861 861 861 861 862 863 863 866 867 863 862 864 862 862 863 862 863 864 863 864 865 866 866 866 866 866 866 866 866 866 867
779 782 785 788 791 794 796 799 802 805 808 810 812 815 817 819 820 822 824 825 828 831 832 834 836 838 839 841 843 844 846 847 848 849 850 851 852 853 853 854 855 855 856 857 857 858 858 859 859 859 859 860 860 860 861 861 861 861 861 862 863 865 864 862 865 866 863 861 861 861 861 862 862 863 864 864 864 864 864 865 864 864 864 865 865
776 780 784 786 789 792 794 798 800 803 805 808 810 813 815 817 819 820 822 824 826 828 831 833 834 836 838 840 842 843 845 846 847 848 849 850 851 852 853 854 854 855 855 856 857 857 858 859 859 859 859 860 860 860 860 861 861 861 861 861 861 862 862 862 864 866 866 864 861 860 860 860 861 861 861 861 861 861 863 863 863 863 863 864 864
773 777 781 784 786 789 792 796 799 801 803 806 808 810 813 815 817 819 821 822 824 827 829 831 833 835 837 838 840 842 844 845 847 847 849 850 850 851 852 853 854 854 855 855 856 857 857 858 858 858 859 859 860 861 861 860 860 861 861 861 861 861 862 862 862 863 866 866 863 859 859 859 859 859 859 860 859 859 861 862 862 862 862 862 863
770 774 777 781 784 787 790 794 796 799 801 803 806 808 811 813 815 818 819 821 824 826 828 830 832 834 836 837 839 840 842 844 846 847 848 849 849 850 851 852 853 853 854 855 855 856 856 857 858 858 859 859 860 861 861 860 860 860 860 860 861 861 861 861 861 861 862 865 865 860 858 858 858 859 860 859 859 859 860 860 861 862 861 861 861
766 771 775 778 782 785 788 791 794 796 799 801 804 806 809 812 814 816 818 820 822 825 827 829 831 832 834 836 837 839 841 842 844 846 847 848 849 850 850 851 852 852 853 854 855 855 856 856 857 857 858 859 859 860 860 861 860 860 860 861 861 861 861 861 861 861 861 863 863 860 857 858 859 859 859 859 860 860 860 860 860 861 861 860 860
764 768 772 776 779 782 785 789 791 794 796 799 801 804 807 809 812 814 816 818 820 823 825 827 829 831 832 834 836 838 839 841 843 844 846 847 848 849 849 850 851 852 852 853 854 855 855 856 856 857 857 858 859 859 860 860 860 860 860 861 861 861 861 861 861 861 861 861 862 860 858 858 858 858 858 859 860 860 860 860 860 860 860 860 860